Time,TemperatureF,DewpointF,PressureIn,WindDirection,WindDirectionDegrees,WindSpeedMPH,WindSpeedGustMPH,Humidity,HourlyPrecipIn,Conditions,Clouds,dailyrainin,SolarRadiationWatts/m^2,SoftwareType,DateUTC
2013-05-31 00:02:00,74.6,68.4,30.14,SSW,213,3.0,7.0,81,0.00,,,0.00,0,Wunderground v.1.15,2013-05-31 04:02:00,
2013-05-31 00:08:00,74.4,68.2,30.15,SSW,211,4.0,7.0,81,0.00,,,0.00,0,Wunderground v.1.15,2013-05-31 04:08:00,
2013-05-31 00:10:00,74.4,68.2,30.15,SSW,211,4.0,6.0,81,0.00,,,0.00,0,Wunderground v.1.15,2013-05-31 04:10:00,
2013-05-31 00:12:00,74.4,68.2,30.15,SSW,212,4.0,6.0,81,0.00,,,0.00,0,Wunderground v.1.15,2013-05-31 04:12:00,
2013-05-31 00:14:00,74.3,68.1,30.14,SSW,213,4.0,7.0,81,0.00,,,0.00,0,Wunderground v.1.15,2013-05-31 04:14:00,
2013-05-31 00:20:00,74.2,68.0,30.14,SW,214,5.0,5.0,81,0.00,,,0.00,0,Wunderground v.1.15,2013-05-31 04:20:00,
2013-05-31 00:26:00,74.1,67.9,30.14,SW,215,4.0,7.0,81,0.00,,,0.00,0,Wunderground v.1.15,2013-05-31 04:26:00,
2013-05-31 00:32:00,74.0,67.8,30.14,SW,215,4.0,7.0,81,0.00,,,0.00,0,Wunderground v.1.15,2013-05-31 04:32:00,
2013-05-31 00:38:00,73.9,67.7,30.14,SW,215,4.0,7.0,81,0.00,,,0.00,0,Wunderground v.1.15,2013-05-31 04:38:00,
2013-05-31 00:44:00,73.8,67.6,30.14,SW,215,3.0,4.0,81,0.00,,,0.00,0,Wunderground v.1.15,2013-05-31 04:44:00,
2013-05-31 00:50:00,73.7,67.9,30.14,SW,215,3.0,3.0,82,0.00,,,0.00,0,Wunderground v.1.15,2013-05-31 04:50:00,
2013-05-31 00:56:00,73.6,67.8,30.14,SW,215,3.0,4.0,82,0.00,,,0.00,0,Wunderground v.1.15,2013-05-31 04:56:00,
2013-05-31 01:02:00,73.5,67.7,30.14,SW,215,3.0,4.0,82,0.00,,,0.00,0,Wunderground v.1.15,2013-05-31 05:02:00,
2013-05-31 01:08:00,73.5,67.7,30.15,SW,215,3.0,4.0,82,0.00,,,0.00,0,Wunderground v.1.15,2013-05-31 05:08:00,
2013-05-31 01:14:00,73.5,67.7,30.14,SW,215,3.0,3.0,82,0.00,,,0.00,0,Wunderground v.1.15,2013-05-31 05:14:00,
2013-05-31 01:20:00,73.5,67.7,30.14,SW,215,3.0,3.0,82,0.00,,,0.00,0,Wunderground v.1.15,2013-05-31 05:20:00,
2013-05-31 01:26:00,73.4,67.6,30.14,SW,215,3.0,4.0,82,0.00,,,0.00,0,Wunderground v.1.15,2013-05-31 05:26:00,
2013-05-31 01:32:00,73.4,67.6,30.14,SW,215,2.0,3.0,82,0.00,,,0.00,0,Wunderground v.1.15,2013-05-31 05:32:00,
2013-05-31 01:38:00,73.4,67.6,30.14,SW,215,3.0,3.0,82,0.00,,,0.00,0,Wunderground v.1.15,2013-05-31 05:38:00,
2013-05-31 01:44:00,73.3,67.5,30.14,SW,215,3.0,5.0,82,0.00,,,0.00,0,Wunderground v.1.15,2013-05-31 05:44:00,
2013-05-31 01:50:00,73.3,67.5,30.14,SW,215,3.0,3.0,82,0.00,,,0.00,0,Wunderground v.1.15,2013-05-31 05:50:00,
2013-05-31 01:56:00,73.3,67.5,30.14,SW,215,3.0,6.0,82,0.00,,,0.00,0,Wunderground v.1.15,2013-05-31 05:56:00,
2013-05-31 02:02:00,73.3,67.8,30.15,SW,215,4.0,4.0,83,0.00,,,0.00,0,Wunderground v.1.15,2013-05-31 06:02:00,
2013-05-31 02:08:00,73.2,67.7,30.14,SW,215,3.0,5.0,83,0.00,,,0.00,0,Wunderground v.1.15,2013-05-31 06:08:00,
2013-05-31 02:14:00,73.2,67.7,30.14,SW,215,3.0,5.0,83,0.00,,,0.00,0,Wunderground v.1.15,2013-05-31 06:14:00,
2013-05-31 02:20:00,73.1,67.6,30.14,SW,215,2.0,5.0,83,0.00,,,0.00,0,Wunderground v.1.15,2013-05-31 06:20:00,
2013-05-31 02:26:00,73.0,67.5,30.14,SW,215,3.0,5.0,83,0.00,,,0.00,0,Wunderground v.1.15,2013-05-31 06:26:00,
2013-05-31 02:32:00,72.9,67.4,30.14,SW,215,3.0,3.0,83,0.00,,,0.00,0,Wunderground v.1.15,2013-05-31 06:32:00,
2013-05-31 02:38:00,72.9,67.8,30.14,SW,215,3.0,6.0,84,0.00,,,0.00,0,Wunderground v.1.15,2013-05-31 06:38:00,
2013-05-31 02:46:00,72.8,67.7,30.14,SW,215,3.0,5.0,84,0.00,,,0.00,0,Wunderground v.1.15,2013-05-31 06:46:00,
2013-05-31 02:52:00,72.9,67.8,30.14,SW,215,3.0,3.0,84,0.00,,,0.00,0,Wunderground v.1.15,2013-05-31 06:52:00,
2013-05-31 02:58:00,72.8,67.7,30.13,SW,215,3.0,3.0,84,0.00,,,0.00,0,Wunderground v.1.15,2013-05-31 06:58:00,
2013-05-31 03:04:00,72.9,67.8,30.13,SW,215,3.0,6.0,84,0.00,,,0.00,0,Wunderground v.1.15,2013-05-31 07:04:00,
2013-05-31 03:10:00,72.9,67.8,30.13,SW,215,3.0,3.0,84,0.00,,,0.00,0,Wunderground v.1.15,2013-05-31 07:10:00,
2013-05-31 03:16:00,72.9,67.8,30.14,SW,215,3.0,3.0,84,0.00,,,0.00,0,Wunderground v.1.15,2013-05-31 07:16:00,
2013-05-31 03:22:00,72.9,67.8,30.13,SW,215,3.0,3.0,84,0.00,,,0.00,0,Wunderground v.1.15,2013-05-31 07:22:00,
2013-05-31 03:28:00,72.8,67.7,30.14,SW,215,3.0,3.0,84,0.00,,,0.00,0,Wunderground v.1.15,2013-05-31 07:28:00,
2013-05-31 03:34:00,72.8,67.7,30.14,SW,215,3.0,4.0,84,0.00,,,0.00,0,Wunderground v.1.15,2013-05-31 07:34:00,
2013-05-31 03:40:00,72.7,67.6,30.14,SW,215,3.0,4.0,84,0.00,,,0.00,0,Wunderground v.1.15,2013-05-31 07:40:00,
2013-05-31 03:46:00,72.7,67.6,30.14,SW,215,3.0,4.0,84,0.00,,,0.00,0,Wunderground v.1.15,2013-05-31 07:46:00,
2013-05-31 03:52:00,72.6,67.8,30.15,SW,215,3.0,5.0,85,0.00,,,0.00,0,Wunderground v.1.15,2013-05-31 07:52:00,
2013-05-31 03:58:00,72.6,67.8,30.14,SW,215,4.0,6.0,85,0.00,,,0.00,0,Wunderground v.1.15,2013-05-31 07:58:00,
2013-05-31 04:04:00,72.5,67.7,30.15,SW,215,4.0,5.0,85,0.00,,,0.00,0,Wunderground v.1.15,2013-05-31 08:04:00,
2013-05-31 04:10:00,72.5,67.7,30.14,SW,215,4.0,4.0,85,0.00,,,0.00,0,Wunderground v.1.15,2013-05-31 08:10:00,
2013-05-31 04:16:00,72.4,67.6,30.15,SW,215,4.0,8.0,85,0.00,,,0.00,0,Wunderground v.1.15,2013-05-31 08:16:00,
2013-05-31 04:22:00,72.4,67.6,30.15,SW,215,5.0,5.0,85,0.00,,,0.00,0,Wunderground v.1.15,2013-05-31 08:22:00,
2013-05-31 04:28:00,72.3,67.5,30.15,SW,215,3.0,5.0,85,0.00,,,0.00,0,Wunderground v.1.15,2013-05-31 08:28:00,
2013-05-31 04:36:00,72.4,67.6,30.15,SW,215,4.0,5.0,85,0.00,,,0.00,0,Wunderground v.1.15,2013-05-31 08:36:00,
2013-05-31 04:42:00,72.3,67.5,30.15,SW,215,4.0,4.0,85,0.00,,,0.00,0,Wunderground v.1.15,2013-05-31 08:42:00,
2013-05-31 04:48:00,72.2,67.4,30.15,SW,215,4.0,4.0,85,0.00,,,0.00,0,Wunderground v.1.15,2013-05-31 08:48:00,
2013-05-31 04:56:00,72.2,67.4,30.15,SW,215,3.0,4.0,85,0.00,,,0.00,0,Wunderground v.1.15,2013-05-31 08:56:00,
2013-05-31 05:02:00,72.1,67.3,30.15,SW,215,3.0,5.0,85,0.00,,,0.00,0,Wunderground v.1.15,2013-05-31 09:02:00,
2013-05-31 05:08:00,72.0,67.2,30.15,SW,215,3.0,5.0,85,0.00,,,0.00,0,Wunderground v.1.15,2013-05-31 09:08:00,
2013-05-31 05:16:00,71.9,67.5,30.16,SW,215,4.0,5.0,86,0.00,,,0.00,0,Wunderground v.1.15,2013-05-31 09:16:00,
2013-05-31 05:22:00,71.8,67.4,30.16,SW,215,4.0,4.0,86,0.00,,,0.00,0,Wunderground v.1.15,2013-05-31 09:22:00,
2013-05-31 05:28:00,71.7,67.3,30.16,SW,215,3.0,4.0,86,0.00,,,0.00,0,Wunderground v.1.15,2013-05-31 09:28:00,
2013-05-31 05:36:00,71.6,67.2,30.16,SW,215,3.0,5.0,86,0.00,,,0.00,0,Wunderground v.1.15,2013-05-31 09:36:00,
2013-05-31 05:42:00,71.5,67.1,30.16,SW,215,2.0,4.0,86,0.00,,,0.00,7,Wunderground v.1.15,2013-05-31 09:42:00,
2013-05-31 05:48:00,71.5,67.4,30.16,SW,215,2.0,4.0,87,0.00,,,0.00,9,Wunderground v.1.15,2013-05-31 09:48:00,
2013-05-31 05:56:00,71.4,67.3,30.17,SW,215,2.0,3.0,87,0.00,,,0.00,16,Wunderground v.1.15,2013-05-31 09:56:00,
2013-05-31 06:02:00,71.3,67.2,30.17,SW,215,2.0,5.0,87,0.00,,,0.00,21,Wunderground v.1.15,2013-05-31 10:02:00,
2013-05-31 06:08:00,71.3,67.2,30.17,SW,215,3.0,5.0,87,0.00,,,0.00,28,Wunderground v.1.15,2013-05-31 10:08:00,
2013-05-31 06:16:00,71.4,67.3,30.17,SW,215,3.0,4.0,87,0.00,,,0.00,40,Wunderground v.1.15,2013-05-31 10:16:00,
2013-05-31 06:22:00,71.4,67.3,30.17,SW,215,3.0,6.0,87,0.00,,,0.00,53,Wunderground v.1.15,2013-05-31 10:22:00,
2013-05-31 06:28:00,71.5,67.4,30.17,SW,215,4.0,6.0,87,0.00,,,0.00,67,Wunderground v.1.15,2013-05-31 10:28:00,
2013-05-31 06:36:00,71.6,67.5,30.17,SW,215,3.0,5.0,87,0.00,,,0.00,90,Wunderground v.1.15,2013-05-31 10:36:00,
2013-05-31 06:42:00,71.7,67.6,30.17,SW,215,4.0,6.0,87,0.00,,,0.00,107,Wunderground v.1.15,2013-05-31 10:42:00,
2013-05-31 06:48:00,71.9,67.5,30.17,SW,215,4.0,6.0,86,0.00,,,0.00,128,Wunderground v.1.15,2013-05-31 10:48:00,
2013-05-31 06:54:00,72.1,67.7,30.17,SW,215,4.0,7.0,86,0.00,,,0.00,149,Wunderground v.1.15,2013-05-31 10:54:00,
2013-05-31 07:00:00,72.2,67.4,30.17,SW,215,4.0,4.0,85,0.00,,,0.00,169,Wunderground v.1.15,2013-05-31 11:00:00,
2013-05-31 07:06:00,72.5,67.7,30.17,SW,215,3.0,5.0,85,0.00,,,0.00,188,Wunderground v.1.15,2013-05-31 11:06:00,
2013-05-31 07:12:00,72.8,67.7,30.17,SW,218,4.0,5.0,84,0.00,,,0.00,207,Wunderground v.1.15,2013-05-31 11:12:00,
2013-05-31 07:18:00,73.1,67.6,30.18,SW,218,4.0,5.0,83,0.00,,,0.00,221,Wunderground v.1.15,2013-05-31 11:18:00,
2013-05-31 07:24:00,73.4,67.9,30.18,SW,219,3.0,7.0,83,0.00,,,0.00,241,Wunderground v.1.15,2013-05-31 11:24:00,
2013-05-31 07:30:00,74.1,67.9,30.18,SW,219,3.0,4.0,81,0.00,,,0.00,264,Wunderground v.1.15,2013-05-31 11:30:00,
2013-05-31 07:36:00,74.6,68.0,30.18,SW,219,3.0,6.0,80,0.00,,,0.00,281,Wunderground v.1.15,2013-05-31 11:36:00,
2013-05-31 07:42:00,75.0,68.0,30.18,SW,228,4.0,9.0,79,0.00,,,0.00,301,Wunderground v.1.15,2013-05-31 11:42:00,
2013-05-31 07:48:00,75.4,68.1,30.18,SW,229,4.0,9.0,78,0.00,,,0.00,311,Wunderground v.1.15,2013-05-31 11:48:00,
2013-05-31 07:54:00,75.7,68.0,30.18,SW,229,5.0,8.0,77,0.00,,,0.00,338,Wunderground v.1.15,2013-05-31 11:54:00,
2013-05-31 08:00:00,75.9,67.8,30.18,SW,230,6.0,6.0,76,0.00,,,0.00,353,Wunderground v.1.15,2013-05-31 12:00:00,
2013-05-31 08:06:00,76.2,68.1,30.18,SW,217,5.0,7.0,76,0.00,,,0.00,374,Wunderground v.1.15,2013-05-31 12:06:00,
2013-05-31 08:12:00,76.5,68.4,30.18,SW,217,5.0,5.0,76,0.00,,,0.00,396,Wunderground v.1.15,2013-05-31 12:12:00,
2013-05-31 08:18:00,77.0,68.5,30.18,SW,215,4.0,5.0,75,0.00,,,0.00,417,Wunderground v.1.15,2013-05-31 12:18:00,
2013-05-31 08:24:00,77.9,68.5,30.18,SW,216,4.0,8.0,73,0.00,,,0.00,436,Wunderground v.1.15,2013-05-31 12:24:00,
2013-05-31 08:30:00,78.0,68.6,30.18,SW,216,4.0,8.0,73,0.00,,,0.00,455,Wunderground v.1.15,2013-05-31 12:30:00,
2013-05-31 08:36:00,78.3,68.5,30.18,SW,216,4.0,8.0,72,0.00,,,0.00,473,Wunderground v.1.15,2013-05-31 12:36:00,
2013-05-31 08:42:00,78.3,68.5,30.18,SW,215,4.0,9.0,72,0.00,,,0.00,492,Wunderground v.1.15,2013-05-31 12:42:00,
2013-05-31 08:48:00,78.7,68.9,30.18,SW,217,6.0,9.0,72,0.00,,,0.00,512,Wunderground v.1.15,2013-05-31 12:48:00,
2013-05-31 08:54:00,79.2,68.6,30.17,SW,217,5.0,5.0,70,0.00,,,0.00,531,Wunderground v.1.15,2013-05-31 12:54:00,
2013-05-31 09:00:00,79.5,68.9,30.17,SW,217,4.0,4.0,70,0.00,,,0.00,550,Wunderground v.1.15,2013-05-31 13:00:00,
2013-05-31 09:06:00,80.1,68.6,30.17,SW,217,4.0,5.0,68,0.00,,,0.00,566,Wunderground v.1.15,2013-05-31 13:06:00,
2013-05-31 09:12:00,80.4,68.9,30.17,SW,217,5.0,8.0,68,0.00,,,0.00,587,Wunderground v.1.15,2013-05-31 13:12:00,
2013-05-31 09:18:00,81.0,68.6,30.17,SW,217,5.0,8.0,66,0.00,,,0.00,603,Wunderground v.1.15,2013-05-31 13:18:00,
2013-05-31 09:24:00,81.1,68.2,30.17,SW,223,5.0,9.0,65,0.00,,,0.00,624,Wunderground v.1.15,2013-05-31 13:24:00,
2013-05-31 09:30:00,81.5,68.6,30.17,SW,225,5.0,5.0,65,0.00,,,0.00,645,Wunderground v.1.15,2013-05-31 13:30:00,
2013-05-31 09:36:00,82.1,68.3,30.17,SW,223,5.0,7.0,63,0.00,,,0.00,663,Wunderground v.1.15,2013-05-31 13:36:00,
2013-05-31 09:42:00,82.7,68.4,30.17,SW,223,5.0,7.0,62,0.00,,,0.00,679,Wunderground v.1.15,2013-05-31 13:42:00,
2013-05-31 09:48:00,83.3,68.4,30.17,WSW,248,5.0,7.0,61,0.00,,,0.00,696,Wunderground v.1.15,2013-05-31 13:48:00,
2013-05-31 09:54:00,83.6,68.2,30.17,WSW,251,6.0,12.0,60,0.00,,,0.00,714,Wunderground v.1.15,2013-05-31 13:54:00,
2013-05-31 10:00:00,83.4,68.5,30.16,West,273,6.0,6.0,61,0.00,,,0.00,663,Wunderground v.1.15,2013-05-31 14:00:00,
2013-05-31 10:06:00,83.3,68.0,30.16,SSW,202,6.0,8.0,60,0.00,,,0.00,418,Wunderground v.1.15,2013-05-31 14:06:00,
2013-05-31 10:12:00,83.3,68.4,30.16,SW,219,6.0,10.0,61,0.00,,,0.00,758,Wunderground v.1.15,2013-05-31 14:12:00,
2013-05-31 10:18:00,83.5,68.6,30.15,SW,223,7.0,10.0,61,0.00,,,0.00,645,Wunderground v.1.15,2013-05-31 14:18:00,
2013-05-31 10:24:00,83.8,68.4,30.15,SW,225,7.0,9.0,60,0.00,,,0.00,694,Wunderground v.1.15,2013-05-31 14:24:00,
2013-05-31 10:30:00,83.9,68.0,30.15,SW,223,7.0,7.0,59,0.00,,,0.00,751,Wunderground v.1.15,2013-05-31 14:30:00,
2013-05-31 10:36:00,84.4,69.0,30.15,SW,229,7.0,8.0,60,0.00,,,0.00,784,Wunderground v.1.15,2013-05-31 14:36:00,
2013-05-31 10:42:00,85.7,68.7,30.15,SW,229,5.0,8.0,57,0.00,,,0.00,814,Wunderground v.1.15,2013-05-31 14:42:00,
2013-05-31 10:48:00,85.8,67.8,30.16,SW,227,7.0,9.0,55,0.00,,,0.00,817,Wunderground v.1.15,2013-05-31 14:48:00,
2013-05-31 10:54:00,86.3,67.2,30.16,WSW,246,7.0,7.0,53,0.00,,,0.00,835,Wunderground v.1.15,2013-05-31 14:54:00,
2013-05-31 11:00:00,87.3,67.0,30.16,SW,234,6.0,11.0,51,0.00,,,0.00,842,Wunderground v.1.15,2013-05-31 15:00:00,
2013-05-31 11:06:00,87.6,67.2,30.16,SW,221,6.0,11.0,51,0.00,,,0.00,846,Wunderground v.1.15,2013-05-31 15:06:00,
2013-05-31 11:12:00,87.2,66.3,30.15,SW,219,6.0,7.0,50,0.00,,,0.00,851,Wunderground v.1.15,2013-05-31 15:12:00,
2013-05-31 11:18:00,87.6,67.2,30.15,SSW,212,6.0,8.0,51,0.00,,,0.00,853,Wunderground v.1.15,2013-05-31 15:18:00,
2013-05-31 11:24:00,87.8,66.8,30.15,West,261,6.0,8.0,50,0.00,,,0.00,844,Wunderground v.1.15,2013-05-31 15:24:00,
2013-05-31 11:30:00,88.0,66.4,30.15,WNW,285,7.0,7.0,49,0.00,,,0.00,874,Wunderground v.1.15,2013-05-31 15:30:00,
2013-05-31 11:36:00,88.2,66.0,30.15,West,276,6.0,10.0,48,0.00,,,0.00,895,Wunderground v.1.15,2013-05-31 15:36:00,
2013-05-31 11:42:00,88.2,65.4,30.15,SSW,203,6.0,7.0,47,0.00,,,0.00,870,Wunderground v.1.15,2013-05-31 15:42:00,
2013-05-31 11:48:00,88.6,66.4,30.14,West,261,6.0,12.0,48,0.00,,,0.00,900,Wunderground v.1.15,2013-05-31 15:48:00,
2013-05-31 11:54:00,88.8,66.0,30.14,West,267,6.0,7.0,47,0.00,,,0.00,909,Wunderground v.1.15,2013-05-31 15:54:00,
2013-05-31 12:00:00,88.9,65.4,30.14,WSW,254,6.0,7.0,46,0.00,,,0.00,914,Wunderground v.1.15,2013-05-31 16:00:00,
2013-05-31 12:06:00,89.1,65.6,30.14,SW,234,7.0,10.0,46,0.00,,,0.00,923,Wunderground v.1.15,2013-05-31 16:06:00,
2013-05-31 12:12:00,89.2,65.7,30.14,SSW,204,7.0,7.0,46,0.00,,,0.00,921,Wunderground v.1.15,2013-05-31 16:12:00,
2013-05-31 12:18:00,82.8,65.0,30.14,WSW,238,6.0,9.0,55,0.00,,,0.00,921,Wunderground v.1.15,2013-05-31 16:18:00,
2013-05-31 12:24:00,79.7,65.5,30.14,South,173,5.0,5.0,62,0.00,,,0.00,925,Wunderground v.1.15,2013-05-31 16:24:00,
2013-05-31 12:30:00,78.8,65.6,30.14,South,176,4.0,4.0,64,0.00,,,0.00,928,Wunderground v.1.15,2013-05-31 16:30:00,
2013-05-31 12:36:00,77.7,65.9,30.14,South,173,4.0,7.0,67,0.00,,,0.00,926,Wunderground v.1.15,2013-05-31 16:36:00,
2013-05-31 12:42:00,77.0,66.5,30.14,South,174,3.0,4.0,70,0.00,,,0.00,932,Wunderground v.1.15,2013-05-31 16:42:00,
2013-05-31 12:48:00,78.4,66.1,30.14,South,171,4.0,6.0,66,0.00,,,0.00,935,Wunderground v.1.15,2013-05-31 16:48:00,
2013-05-31 12:56:00,76.4,65.9,30.14,South,171,4.0,5.0,70,0.00,,,0.00,932,Wunderground v.1.15,2013-05-31 16:56:00,
2013-05-31 13:02:00,77.6,66.2,30.13,SW,223,5.0,10.0,68,0.00,,,0.00,930,Wunderground v.1.15,2013-05-31 17:02:00,
2013-05-31 13:08:00,76.1,66.4,30.13,SSW,208,6.0,10.0,72,0.00,,,0.00,933,Wunderground v.1.15,2013-05-31 17:08:00,
2013-05-31 13:16:00,75.5,65.8,30.13,SSW,211,5.0,7.0,72,0.00,,,0.00,926,Wunderground v.1.15,2013-05-31 17:16:00,
2013-05-31 13:22:00,74.8,65.6,30.13,SW,215,6.0,8.0,73,0.00,,,0.00,930,Wunderground v.1.15,2013-05-31 17:22:00,
2013-05-31 13:28:00,74.2,65.4,30.13,SSW,213,7.0,8.0,74,0.00,,,0.00,925,Wunderground v.1.15,2013-05-31 17:28:00,
2013-05-31 13:36:00,74.7,65.5,30.13,SW,226,7.0,9.0,73,0.00,,,0.00,923,Wunderground v.1.15,2013-05-31 17:36:00,
2013-05-31 13:42:00,74.7,65.5,30.13,SW,224,7.0,9.0,73,0.00,,,0.00,923,Wunderground v.1.15,2013-05-31 17:42:00,
2013-05-31 13:48:00,74.0,65.6,30.12,SW,216,7.0,10.0,75,0.00,,,0.00,911,Wunderground v.1.15,2013-05-31 17:48:00,
2013-05-31 13:56:00,75.4,66.1,30.12,SSW,212,7.0,10.0,73,0.00,,,0.00,921,Wunderground v.1.15,2013-05-31 17:56:00,
2013-05-31 14:02:00,75.2,65.6,30.12,SSW,199,7.0,9.0,72,0.00,,,0.00,911,Wunderground v.1.15,2013-05-31 18:02:00,
2013-05-31 14:08:00,75.1,65.9,30.12,SW,221,7.0,9.0,73,0.00,,,0.00,904,Wunderground v.1.15,2013-05-31 18:08:00,
2013-05-31 14:14:00,75.6,65.5,30.11,SSW,213,6.0,9.0,71,0.00,,,0.00,907,Wunderground v.1.15,2013-05-31 18:14:00,
2013-05-31 14:20:00,75.7,65.6,30.11,SSW,209,6.0,6.0,71,0.00,,,0.00,907,Wunderground v.1.15,2013-05-31 18:20:00,
2013-05-31 14:26:00,76.4,65.9,30.11,SSW,202,5.0,9.0,70,0.00,,,0.00,896,Wunderground v.1.15,2013-05-31 18:26:00,
2013-05-31 14:32:00,76.2,65.7,30.11,SSE,159,4.0,9.0,70,0.00,,,0.00,882,Wunderground v.1.15,2013-05-31 18:32:00,
2013-05-31 14:38:00,76.6,66.1,30.11,SW,223,5.0,9.0,70,0.00,,,0.00,881,Wunderground v.1.15,2013-05-31 18:38:00,
2013-05-31 14:44:00,77.1,66.1,30.10,SW,217,7.0,11.0,69,0.00,,,0.00,877,Wunderground v.1.15,2013-05-31 18:44:00,
2013-05-31 14:50:00,78.3,66.9,30.10,SW,223,7.0,7.0,68,0.00,,,0.00,860,Wunderground v.1.15,2013-05-31 18:50:00,
2013-05-31 14:56:00,78.6,66.3,30.10,SSW,196,8.0,9.0,66,0.00,,,0.00,856,Wunderground v.1.15,2013-05-31 18:56:00,
2013-05-31 15:02:00,79.7,66.4,30.10,SW,217,8.0,10.0,64,0.00,,,0.00,853,Wunderground v.1.15,2013-05-31 19:02:00,
2013-05-31 15:08:00,79.0,66.7,30.10,SSW,200,8.0,10.0,66,0.00,,,0.00,849,Wunderground v.1.15,2013-05-31 19:08:00,
2013-05-31 15:16:00,78.4,67.4,30.10,SW,228,8.0,11.0,69,0.00,,,0.00,788,Wunderground v.1.15,2013-05-31 19:16:00,
2013-05-31 15:22:00,78.1,67.1,30.10,SW,221,10.0,11.0,69,0.00,,,0.00,733,Wunderground v.1.15,2013-05-31 19:22:00,
2013-05-31 15:28:00,77.4,66.4,30.09,SW,221,11.0,11.0,69,0.00,,,0.00,786,Wunderground v.1.15,2013-05-31 19:28:00,
2013-05-31 15:36:00,77.1,67.4,30.09,SW,224,9.0,12.0,72,0.00,,,0.00,703,Wunderground v.1.15,2013-05-31 19:36:00,
2013-05-31 15:42:00,77.7,67.1,30.09,SW,221,8.0,14.0,70,0.00,,,0.00,775,Wunderground v.1.15,2013-05-31 19:42:00,
2013-05-31 15:48:00,77.9,67.7,30.09,SSW,192,10.0,14.0,71,0.00,,,0.00,747,Wunderground v.1.15,2013-05-31 19:48:00,
2013-05-31 15:56:00,78.0,67.0,30.09,SW,219,9.0,12.0,69,0.00,,,0.00,686,Wunderground v.1.15,2013-05-31 19:56:00,
2013-05-31 16:02:00,79.4,67.5,30.08,SW,234,9.0,12.0,67,0.00,,,0.00,719,Wunderground v.1.15,2013-05-31 20:02:00,
2013-05-31 16:08:00,77.7,66.7,30.08,SSW,209,9.0,12.0,69,0.00,,,0.00,598,Wunderground v.1.15,2013-05-31 20:08:00,
2013-05-31 16:14:00,77.6,66.6,30.08,SSW,210,9.0,10.0,69,0.00,,,0.00,686,Wunderground v.1.15,2013-05-31 20:14:00,
2013-05-31 16:20:00,76.9,66.4,30.08,SW,221,9.0,9.0,70,0.00,,,0.00,673,Wunderground v.1.15,2013-05-31 20:20:00,
2013-05-31 16:26:00,78.4,67.0,30.08,SW,227,9.0,9.0,68,0.00,,,0.00,657,Wunderground v.1.15,2013-05-31 20:26:00,
2013-05-31 16:32:00,77.4,66.4,30.08,SSW,210,8.0,9.0,69,0.00,,,0.00,638,Wunderground v.1.15,2013-05-31 20:32:00,
2013-05-31 16:38:00,78.5,67.5,30.08,SW,219,6.0,11.0,69,0.00,,,0.00,615,Wunderground v.1.15,2013-05-31 20:38:00,
2013-05-31 16:44:00,77.8,67.2,30.08,SW,215,7.0,10.0,70,0.00,,,0.00,598,Wunderground v.1.15,2013-05-31 20:44:00,
2013-05-31 16:50:00,77.4,66.4,30.08,SSW,213,8.0,8.0,69,0.00,,,0.00,596,Wunderground v.1.15,2013-05-31 20:50:00,
2013-05-31 16:56:00,76.7,66.6,30.07,SSW,205,8.0,10.0,71,0.00,,,0.00,559,Wunderground v.1.15,2013-05-31 20:56:00,
2013-05-31 17:02:00,77.0,66.9,30.08,SW,216,8.0,8.0,71,0.00,,,0.00,547,Wunderground v.1.15,2013-05-31 21:02:00,
2013-05-31 17:08:00,77.0,67.3,30.07,SW,220,7.0,8.0,72,0.00,,,0.00,550,Wunderground v.1.15,2013-05-31 21:08:00,
2013-05-31 17:14:00,76.7,67.0,30.07,SW,220,6.0,7.0,72,0.00,,,0.00,515,Wunderground v.1.15,2013-05-31 21:14:00,
2013-05-31 17:20:00,77.2,67.1,30.07,SSW,213,5.0,5.0,71,0.00,,,0.00,504,Wunderground v.1.15,2013-05-31 21:20:00,
2013-05-31 17:26:00,77.3,67.6,30.07,SSW,208,5.0,8.0,72,0.00,,,0.00,485,Wunderground v.1.15,2013-05-31 21:26:00,
2013-05-31 17:32:00,77.7,68.0,30.07,SSW,210,6.0,7.0,72,0.00,,,0.00,452,Wunderground v.1.15,2013-05-31 21:32:00,
2013-05-31 17:38:00,77.9,67.3,30.07,SSW,194,5.0,7.0,70,0.00,,,0.00,461,Wunderground v.1.15,2013-05-31 21:38:00,
2013-05-31 17:44:00,76.6,66.5,30.07,SSW,196,4.0,5.0,71,0.00,,,0.00,434,Wunderground v.1.15,2013-05-31 21:44:00,
2013-05-31 17:50:00,77.6,67.9,30.07,South,189,5.0,5.0,72,0.00,,,0.00,415,Wunderground v.1.15,2013-05-31 21:50:00,
2013-05-31 17:56:00,77.2,67.1,30.07,SSE,165,5.0,6.0,71,0.00,,,0.00,401,Wunderground v.1.15,2013-05-31 21:56:00,
2013-05-31 18:02:00,76.8,67.5,30.07,SSE,166,5.0,6.0,73,0.00,,,0.00,380,Wunderground v.1.15,2013-05-31 22:02:00,
2013-05-31 18:08:00,77.9,67.7,30.07,SSE,168,5.0,6.0,71,0.00,,,0.00,359,Wunderground v.1.15,2013-05-31 22:08:00,
2013-05-31 18:14:00,79.6,66.3,30.07,SSW,197,5.0,10.0,64,0.00,,,0.00,346,Wunderground v.1.15,2013-05-31 22:14:00,
2013-05-31 18:20:00,84.5,65.5,30.07,SW,227,6.0,11.0,53,0.00,,,0.00,313,Wunderground v.1.15,2013-05-31 22:20:00,
2013-05-31 18:26:00,86.6,65.2,30.07,SSW,203,7.0,11.0,49,0.00,,,0.00,302,Wunderground v.1.15,2013-05-31 22:26:00,
2013-05-31 18:32:00,87.3,64.6,30.06,SSW,196,7.0,15.0,47,0.00,,,0.00,285,Wunderground v.1.15,2013-05-31 22:32:00,
2013-05-31 18:38:00,85.0,66.0,30.07,South,180,6.0,15.0,53,0.00,,,0.00,264,Wunderground v.1.15,2013-05-31 22:38:00,
2013-05-31 18:44:00,80.2,67.8,30.07,South,188,4.0,6.0,66,0.00,,,0.00,244,Wunderground v.1.15,2013-05-31 22:44:00,
2013-05-31 18:50:00,79.7,68.2,30.07,SW,220,5.0,5.0,68,0.00,,,0.00,220,Wunderground v.1.15,2013-05-31 22:50:00,
2013-05-31 18:56:00,79.6,69.0,30.06,SSW,207,5.0,6.0,70,0.00,,,0.00,199,Wunderground v.1.15,2013-05-31 22:56:00,
2013-05-31 19:02:00,80.8,70.5,30.06,SSW,212,7.0,7.0,71,0.00,,,0.00,176,Wunderground v.1.15,2013-05-31 23:02:00,
2013-05-31 19:08:00,82.0,70.8,30.06,SSW,211,7.0,8.0,69,0.00,,,0.00,151,Wunderground v.1.15,2013-05-31 23:08:00,
2013-05-31 19:14:00,82.3,70.7,30.07,SW,218,8.0,10.0,68,0.00,,,0.00,128,Wunderground v.1.15,2013-05-31 23:14:00,
2013-05-31 19:20:00,82.3,70.7,30.07,SSW,207,9.0,9.0,68,0.00,,,0.00,109,Wunderground v.1.15,2013-05-31 23:20:00,
2013-05-31 19:26:00,82.1,70.5,30.06,SW,230,9.0,12.0,68,0.00,,,0.00,70,Wunderground v.1.15,2013-05-31 23:26:00,
2013-05-31 19:32:00,81.9,70.7,30.07,SW,219,8.0,8.0,69,0.00,,,0.00,67,Wunderground v.1.15,2013-05-31 23:32:00,
2013-05-31 19:38:00,81.7,70.5,30.07,SSW,202,7.0,15.0,69,0.00,,,0.00,51,Wunderground v.1.15,2013-05-31 23:38:00,
2013-05-31 19:44:00,81.4,70.2,30.07,SW,225,9.0,10.0,69,0.00,,,0.00,42,Wunderground v.1.15,2013-05-31 23:44:00,
2013-05-31 19:50:00,81.2,70.5,30.07,SSW,213,8.0,8.0,70,0.00,,,0.00,33,Wunderground v.1.15,2013-05-31 23:50:00,
2013-05-31 19:56:00,80.9,70.2,30.07,SW,219,7.0,9.0,70,0.00,,,0.00,25,Wunderground v.1.15,2013-05-31 23:56:00,
2013-05-31 20:02:00,80.6,69.5,30.07,SSW,208,8.0,13.0,69,0.00,,,0.00,18,Wunderground v.1.15,2013-06-01 00:02:00,
2013-05-31 20:08:00,80.4,68.9,30.07,SSW,204,9.0,13.0,68,0.00,,,0.00,11,Wunderground v.1.15,2013-06-01 00:08:00,
2013-05-31 20:14:00,80.2,68.7,30.07,SW,219,9.0,10.0,68,0.00,,,0.00,7,Wunderground v.1.15,2013-06-01 00:14:00,
2013-05-31 20:20:00,79.9,68.8,30.07,SSW,202,8.0,8.0,69,0.00,,,0.00,0,Wunderground v.1.15,2013-06-01 00:20:00,
2013-05-31 20:26:00,79.7,68.6,30.06,SSW,194,8.0,10.0,69,0.00,,,0.00,0,Wunderground v.1.15,2013-06-01 00:26:00,
2013-05-31 20:32:00,79.4,68.8,30.06,SSW,203,7.0,8.0,70,0.00,,,0.00,0,Wunderground v.1.15,2013-06-01 00:32:00,
2013-05-31 20:38:00,79.1,68.1,30.07,SW,222,6.0,10.0,69,0.00,,,0.00,0,Wunderground v.1.15,2013-06-01 00:38:00,
2013-05-31 20:44:00,78.8,67.8,30.07,SSW,198,6.0,6.0,69,0.00,,,0.00,0,Wunderground v.1.15,2013-06-01 00:44:00,
2013-05-31 20:50:00,78.6,67.6,30.07,SW,221,6.0,8.0,69,0.00,,,0.00,0,Wunderground v.1.15,2013-06-01 00:50:00,
2013-05-31 20:56:00,78.4,67.4,30.07,SSW,207,7.0,8.0,69,0.00,,,0.00,0,Wunderground v.1.15,2013-06-01 00:56:00,
2013-05-31 21:02:00,78.2,67.6,30.07,SW,232,6.0,9.0,70,0.00,,,0.00,0,Wunderground v.1.15,2013-06-01 01:02:00,
2013-05-31 21:08:00,78.0,67.4,30.07,WSW,240,6.0,10.0,70,0.00,,,0.00,0,Wunderground v.1.15,2013-06-01 01:08:00,
2013-05-31 21:14:00,77.7,67.1,30.07,SSW,204,7.0,7.0,70,0.00,,,0.00,0,Wunderground v.1.15,2013-06-01 01:14:00,
2013-05-31 21:20:00,77.5,66.9,30.07,SW,222,7.0,7.0,70,0.00,,,0.00,0,Wunderground v.1.15,2013-06-01 01:20:00,
2013-05-31 21:26:00,77.3,66.7,30.07,SSW,212,7.0,12.0,70,0.00,,,0.00,0,Wunderground v.1.15,2013-06-01 01:26:00,
2013-05-31 21:32:00,77.2,67.1,30.07,SW,217,7.0,7.0,71,0.00,,,0.00,0,Wunderground v.1.15,2013-06-01 01:32:00,
2013-05-31 21:38:00,77.0,67.3,30.07,WSW,244,6.0,7.0,72,0.00,,,0.00,0,Wunderground v.1.15,2013-06-01 01:38:00,
2013-05-31 21:46:00,76.7,67.4,30.08,SSW,207,7.0,7.0,73,0.00,,,0.00,0,Wunderground v.1.15,2013-06-01 01:46:00,
2013-05-31 21:52:00,76.6,67.7,30.08,SSW,206,6.0,8.0,74,0.00,,,0.00,0,Wunderground v.1.15,2013-06-01 01:52:00,
2013-05-31 21:58:00,76.4,67.9,30.08,SSW,202,6.0,13.0,75,0.00,,,0.00,0,Wunderground v.1.15,2013-06-01 01:58:00,
2013-05-31 22:06:00,76.2,68.1,30.08,SSW,200,6.0,6.0,76,0.00,,,0.00,0,Wunderground v.1.15,2013-06-01 02:06:00,
2013-05-31 22:12:00,76.1,68.0,30.08,SW,229,7.0,7.0,76,0.00,,,0.00,0,Wunderground v.1.15,2013-06-01 02:12:00,
2013-05-31 22:18:00,75.9,67.8,30.08,WSW,239,7.0,9.0,76,0.00,,,0.00,0,Wunderground v.1.15,2013-06-01 02:18:00,
2013-05-31 22:24:00,75.7,68.0,30.08,SW,228,7.0,9.0,77,0.00,,,0.00,0,Wunderground v.1.15,2013-06-01 02:24:00,
2013-05-31 22:30:00,75.5,67.8,30.08,SW,223,7.0,7.0,77,0.00,,,0.00,0,Wunderground v.1.15,2013-06-01 02:30:00,
2013-05-31 22:36:00,75.4,67.7,30.09,SW,218,7.0,7.0,77,0.00,,,0.00,0,Wunderground v.1.15,2013-06-01 02:36:00,
2013-05-31 22:42:00,75.3,67.6,30.09,SW,225,6.0,6.0,77,0.00,,,0.00,0,Wunderground v.1.15,2013-06-01 02:42:00,
2013-05-31 22:48:00,75.2,67.5,30.09,SW,231,6.0,7.0,77,0.00,,,0.00,0,Wunderground v.1.15,2013-06-01 02:48:00,
2013-05-31 22:54:00,75.1,67.4,30.08,SSW,205,6.0,6.0,77,0.00,,,0.00,0,Wunderground v.1.15,2013-06-01 02:54:00,
2013-05-31 23:00:00,75.0,67.3,30.09,SSW,213,5.0,5.0,77,0.00,,,0.00,0,Wunderground v.1.15,2013-06-01 03:00:00,
2013-05-31 23:06:00,74.9,67.2,30.08,SSW,209,4.0,5.0,77,0.00,,,0.00,0,Wunderground v.1.15,2013-06-01 03:06:00,
2013-05-31 23:12:00,74.9,67.2,30.09,SSW,207,4.0,7.0,77,0.00,,,0.00,0,Wunderground v.1.15,2013-06-01 03:12:00,
2013-05-31 23:18:00,74.8,67.1,30.08,SSW,213,4.0,7.0,77,0.00,,,0.00,0,Wunderground v.1.15,2013-06-01 03:18:00,
2013-05-31 23:26:00,74.7,67.0,30.08,SW,215,4.0,5.0,77,0.00,,,0.00,0,Wunderground v.1.15,2013-06-01 03:26:00,
2013-05-31 23:32:00,74.7,67.0,30.08,SSW,211,5.0,5.0,77,0.00,,,0.00,0,Wunderground v.1.15,2013-06-01 03:32:00,
2013-05-31 23:38:00,74.7,67.0,30.08,SW,215,4.0,7.0,77,0.00,,,0.00,0,Wunderground v.1.15,2013-06-01 03:38:00,
2013-05-31 23:44:00,74.6,66.9,30.08,SW,221,5.0,5.0,77,0.00,,,0.00,0,Wunderground v.1.15,2013-06-01 03:44:00,
2013-05-31 23:50:00,74.6,66.9,30.08,SW,234,5.0,5.0,77,0.00,,,0.00,0,Wunderground v.1.15,2013-06-01 03:50:00,
2013-05-31 23:56:00,74.5,66.8,30.08,SW,219,5.0,7.0,77,0.00,,,0.00,0,Wunderground v.1.15,2013-06-01 03:56:00,